Date,TemperatureHighF,TemperatureAvgF,TemperatureLowF,DewpointHighF,DewpointAvgF,DewpointLowF,HumidityHigh,HumidityAvg,HumidityLow,PressureMaxIn,PressureMinIn,WindSpeedMaxMPH,WindSpeedAvgMPH,GustSpeedMaxMPH,PrecipitationSumIn
2013-1-1,28.6,27.5,26.6,25.8,23.0,21.4,89,83,80,30.20,30.03,10,5,10,0.00
2013-1-2,36.9,30.7,27.9,30.3,25.9,23.1,86,82,75,30.38,30.05,13,4,13,0.00
2013-1-3,42.6,36.7,26.1,35.7,29.4,20.7,85,75,63,30.48,30.27,20,7,20,0.00
2013-1-4,49.3,45.9,42.4,38.4,36.0,32.0,78,69,52,30.27,30.02,32,11,32,0.00
2013-1-5,50.4,45.5,38.3,42.8,33.4,21.4,86,64,44,30.13,29.91,33,15,33,0.00
2013-1-6,39.2,36.4,33.8,34.2,23.7,18.6,86,61,48,30.16,29.93,25,8,25,0.00
2013-1-7,36.7,31.9,26.1,29.7,22.0,14.4,81,67,51,30.38,29.98,14,3,14,0.00
2013-1-8,31.5,25.6,17.1,21.5,16.3,9.0,78,68,54,30.38,30.18,12,4,12,0.00
2013-1-9,30.2,27.7,24.6,25.2,22.3,19.5,84,80,76,30.20,30.08,10,4,10,0.00
2013-1-10,32.5,27.8,24.4,28.8,23.2,19.4,86,82,79,30.09,29.74,12,4,12,0.00
2013-1-11,39.2,33.0,28.8,34.1,26.2,19.1,88,76,60,29.95,29.71,24,9,24,0.09
2013-1-12,35.4,29.7,25.5,22.0,18.5,14.7,75,63,50,30.08,29.95,18,7,18,0.09
2013-1-13,30.6,28.4,27.0,24.5,21.9,19.5,82,76,72,30.11,30.06,16,6,16,0.00
2013-1-14,34.7,30.7,26.4,30.1,25.9,19.3,88,82,73,30.07,29.86,13,5,13,0.17
2013-1-15,36.3,34.3,32.7,33.1,31.3,29.6,90,89,88,29.89,29.68,8,2,8,0.46
2013-1-16,39.2,35.3,32.2,37.4,32.3,27.9,94,89,80,29.68,29.53,13,6,13,0.01
2013-1-17,36.9,35.0,33.6,31.9,31.1,30.2,90,86,81,29.67,29.51,12,5,12,0.04
2013-1-18,35.6,33.6,28.9,30.7,28.3,25.6,89,81,69,29.64,29.47,17,8,17,0.07
2013-1-19,30.2,27.8,26.4,25.6,21.8,18.8,87,78,70,29.60,29.46,8,1,8,0.07
2013-1-20,34.2,31.1,27.5,31.0,27.0,21.2,88,84,77,29.60,29.48,46,4,46,0.02
2013-1-21,38.1,35.9,34.0,36.5,33.3,30.8,94,90,88,29.49,29.38,14,5,14,0.22
2013-1-22,36.9,33.3,29.7,34.2,29.8,25.1,91,87,82,29.62,29.40,8,2,8,0.02
2013-1-23,34.3,30.0,27.7,26.9,24.6,22.0,84,80,74,29.81,29.61,6,2,6,0.06
2013-1-24,32.9,30.3,29.3,28.7,26.1,22.9,89,84,78,29.81,29.69,15,7,15,0.06
2013-1-25,32.9,29.6,27.0,22.9,19.2,12.7,75,65,54,29.95,29.72,18,11,18,0.00
2013-1-26,32.7,27.9,22.5,19.6,16.0,12.9,71,61,55,30.01,29.91,12,6,12,0.00
2013-1-27,30.9,24.0,14.2,24.3,15.6,6.5,79,70,62,30.02,29.87,9,3,9,0.00
2013-1-28,33.4,30.9,27.9,28.2,26.1,22.8,85,82,79,30.11,29.86,10,2,10,0.07
2013-1-29,37.2,29.9,19.4,33.7,25.1,14.8,87,82,78,30.14,29.95,12,3,12,0.06
2013-1-30,43.7,38.6,35.8,41.8,36.2,32.2,94,91,86,29.99,29.77,10,3,10,0.11
2013-1-31,51.4,45.8,37.8,45.8,32.6,25.2,94,62,36,30.00,29.74,43,15,43,0.14
2013-2-1,51.3,45.8,42.1,34.4,31.5,25.8,70,58,38,29.83,29.48,56,12,57,0.00
2013-2-2,43.3,41.3,39.0,39.9,36.0,22.8,92,82,70,30.13,29.24,25,6,25,0.38
2013-2-3,41.4,36.9,32.4,33.0,26.9,18.8,82,67,52,29.92,29.42,24,13,24,0.01
2013-2-4,39.0,34.2,27.9,31.2,26.1,17.6,84,72,58,29.92,29.86,15,7,15,0.05
2013-2-5,41.5,37.8,34.0,35.4,32.4,29.4,85,81,73,29.90,29.58,16,7,16,0.01
2013-2-6,38.1,36.3,33.1,35.6,32.5,29.6,92,86,81,29.59,29.42,12,4,12,0.25
2013-2-7,36.1,33.7,29.1,31.5,28.5,22.0,89,82,66,29.73,29.39,17,4,17,0.37
2013-2-8,38.3,29.6,23.9,25.7,20.9,17.3,82,70,54,29.83,29.71,13,4,13,0.37
2013-2-9,34.7,27.8,20.7,25.2,21.0,15.1,83,76,57,29.91,29.82,12,5,12,0.01
2013-2-10,30.9,29.5,27.7,26.4,24.8,22.6,86,83,78,29.90,29.81,12,5,12,0.01
2013-2-11,32.2,27.3,24.3,25.7,21.4,17.7,84,78,70,29.93,29.85,12,3,12,0.01
2013-2-12,36.1,31.7,24.3,30.3,24.7,18.7,83,75,67,29.90,29.79,18,6,18,0.09
2013-2-13,41.7,37.6,34.3,37.6,32.4,29.9,91,82,70,30.00,29.85,15,6,15,0.05
2013-2-14,38.7,36.0,33.8,35.4,31.7,29.1,89,84,80,30.11,30.00,9,4,9,0.06
2013-2-15,44.6,38.0,34.7,38.7,33.9,28.8,93,85,76,30.08,30.01,7,2,7,0.06
2013-2-16,45.5,36.1,27.9,37.7,29.9,22.2,91,78,60,30.15,30.08,11,3,11,0.00
2013-2-17,36.3,33.6,27.5,29.8,28.3,21.8,86,81,74,30.18,30.14,6,2,6,0.00
2013-2-18,38.5,33.7,28.2,30.6,27.7,22.5,85,78,70,30.16,30.07,8,3,8,0.00
2013-2-19,41.4,34.2,28.6,30.8,27.3,21.4,85,77,50,30.08,29.81,14,6,14,0.07
2013-2-20,37.9,34.0,28.6,30.6,24.8,20.7,84,69,52,30.04,29.81,21,8,21,0.08
2013-2-21,37.9,32.1,22.8,36.4,17.3,-23.9,97,56,30,30.06,29.93,12,5,12,0.00
2013-2-22,33.4,31.5,28.9,30.0,25.5,18.7,87,79,61,29.93,29.72,15,6,15,0.00
2013-2-23,39.9,36.6,33.4,37.9,33.5,30.0,93,89,85,29.81,29.66,20,6,20,0.40
2013-2-24,44.4,42.6,39.9,42.0,40.0,38.0,93,90,85,29.91,29.76,17,7,17,0.22
2013-2-25,49.5,46.1,43.2,43.2,41.4,39.0,91,84,75,30.12,29.90,15,6,15,0.24
2013-2-26,55.9,48.0,43.0,43.8,40.8,38.0,86,76,63,30.12,30.06,11,5,11,0.00
2013-2-27,50.7,44.6,37.8,39.8,37.4,33.7,86,76,62,30.28,30.12,13,6,13,0.00
2013-2-28,52.0,41.7,32.4,38.5,33.1,26.9,86,72,52,30.31,30.15,10,3,10,0.00
2013-3-1,41.9,36.6,29.3,36.3,30.3,25.1,90,78,63,30.16,29.98,20,6,20,0.00
2013-3-2,48.2,38.5,28.4,26.5,23.3,20.2,72,55,37,30.14,30.02,17,6,17,0.00
2013-3-3,47.3,36.5,24.8,30.1,22.7,17.4,81,59,37,30.11,29.98,22,7,22,0.00
2013-3-4,49.5,35.9,25.7,29.6,21.6,17.9,79,58,33,30.32,30.06,16,4,16,0.00
2013-3-5,52.9,37.0,23.4,26.5,18.8,10.8,79,52,19,30.34,30.12,20,6,20,0.00
2013-3-6,48.9,40.8,31.5,35.9,29.7,20.8,74,64,53,30.12,29.79,8,4,8,0.00
2013-3-7,55.4,48.4,42.4,45.5,41.9,35.3,88,79,67,29.80,29.64,13,5,13,0.04
2013-3-8,56.8,50.1,46.6,48.0,45.0,42.3,88,83,71,29.66,29.57,10,4,10,0.11
2013-3-9,56.8,50.8,47.7,49.2,46.1,43.5,92,84,73,29.58,29.53,12,4,12,0.01
2013-3-10,56.3,49.5,45.9,48.5,44.7,42.6,92,84,65,29.54,29.44,12,2,12,0.07
2013-3-11,57.4,46.6,37.0,48.5,38.1,31.3,92,74,44,29.55,29.44,17,5,17,0.08
2013-3-12,56.7,46.5,36.1,41.9,35.0,27.6,81,65,50,29.55,29.42,13,4,13,0.01
2013-3-13,50.4,46.4,41.4,45.6,41.9,37.2,89,84,78,29.45,29.40,10,4,10,0.07
2013-3-14,44.6,37.6,29.1,41.1,34.2,25.5,91,88,84,29.44,29.25,20,9,20,0.63
2013-3-15,33.4,29.8,26.2,25.5,18.3,11.6,86,64,41,29.88,29.24,34,8,35,0.63
2013-3-16,37.0,30.6,21.9,15.8,12.1,2.5,64,47,26,30.13,29.87,23,10,23,0.05
2013-3-17,37.2,28.1,17.1,21.7,14.0,8.6,75,56,38,30.16,29.99,18,8,18,0.01
2013-3-18,37.9,33.1,28.6,31.4,23.6,14.3,85,68,52,29.99,29.36,34,7,35,0.41
2013-3-19,49.6,41.3,34.2,36.9,32.1,25.6,92,71,46,29.67,29.27,27,8,27,0.56
2013-3-20,59.4,45.7,31.3,39.4,33.4,24.6,84,64,36,29.74,29.67,17,5,17,0.00
2013-3-21,46.0,43.3,37.8,42.0,38.1,28.9,91,82,70,29.75,29.70,29,10,29,0.30
2013-3-22,43.7,37.6,28.6,28.9,24.1,18.8,71,58,49,29.94,29.73,29,15,29,0.30
2013-3-23,37.2,30.8,25.3,23.5,20.4,17.2,77,66,54,30.08,29.93,13,4,13,0.00
2013-3-24,36.5,29.9,23.7,18.3,5.3,-3.5,63,37,19,30.17,30.06,13,6,13,0.00
2013-3-25,37.6,31.9,28.2,25.0,9.8,0.0,83,44,22,30.07,29.70,16,8,16,0.00
2013-3-26,33.1,30.0,27.5,26.7,24.0,21.7,83,78,71,29.74,29.65,15,8,16,0.00
2013-3-27,35.2,31.2,27.7,27.7,25.3,22.0,84,79,72,29.91,29.74,10,5,10,0.08
2013-3-28,38.7,34.6,31.8,30.4,27.1,23.6,85,74,60,30.01,29.91,13,6,13,0.27
2013-3-29,37.0,34.7,32.9,32.9,30.0,26.4,85,83,73,29.96,29.70,17,4,17,0.66
2013-3-30,48.9,40.8,33.3,39.9,35.6,29.8,91,82,68,29.71,29.53,13,4,13,0.27
2013-3-31,45.7,40.9,33.4,43.5,37.5,25.6,93,88,72,29.60,29.35,21,7,21,0.30
2013-4-1,45.0,37.7,32.0,25.8,24.3,22.3,73,59,41,29.86,29.59,22,8,22,0.30
2013-4-2,45.5,39.6,34.5,37.9,29.9,24.3,90,69,50,29.86,29.61,17,5,20,0.30
2013-4-3,44.2,41.5,39.0,41.8,38.9,36.5,92,90,87,29.71,29.57,18,7,18,0.01
2013-4-4,45.7,40.5,37.4,36.6,34.7,32.6,91,80,67,29.85,29.69,8,3,8,0.01
2013-4-5,44.6,40.0,33.8,39.6,35.3,28.9,90,83,74,29.83,29.62,13,4,13,0.05
2013-4-6,50.5,44.1,38.5,40.1,36.8,32.1,91,76,58,29.97,29.67,15,5,15,0.06
2013-4-7,47.8,42.1,37.8,37.3,34.0,31.4,85,73,58,29.99,29.88,11,5,11,0.00
2013-4-8,54.9,45.2,37.9,33.1,27.4,21.8,71,51,30,29.92,29.78,15,5,15,0.00
2013-4-9,54.5,46.7,41.9,40.6,37.5,31.5,82,71,53,29.80,29.72,12,5,12,0.00
2013-4-10,58.5,48.6,41.2,46.5,41.0,35.3,89,76,51,29.88,29.73,15,5,15,0.05
2013-4-11,67.3,52.1,33.8,44.3,38.8,28.9,89,63,39,29.93,29.79,22,7,22,0.05
2013-4-12,66.9,55.5,48.6,52.3,45.6,40.6,85,70,45,29.82,29.69,29,7,29,0.22
2013-4-13,65.1,52.5,42.3,47.6,42.0,36.7,89,70,37,30.21,29.81,24,6,24,0.01
2013-4-14,65.1,51.6,36.9,44.3,34.8,23.2,89,58,27,30.34,30.21,18,5,18,0.01
2013-4-15,66.6,51.5,35.2,44.1,36.6,31.4,92,61,31,30.35,29.88,11,3,11,0.24
2013-4-16,70.7,53.8,34.9,41.9,34.7,25.6,91,55,19,30.29,30.19,15,4,15,0.24
2013-4-17,72.3,55.3,36.9,46.9,39.4,30.9,92,61,22,30.25,30.15,12,3,12,0.00
2013-4-18,77.5,59.3,41.2,48.7,41.7,33.7,95,59,22,30.18,30.03,13,4,13,0.00
2013-4-19,78.6,60.8,41.7,48.0,40.4,33.2,89,54,21,30.09,29.96,11,4,11,0.00
2013-4-20,78.3,60.4,47.3,55.0,48.0,41.0,98,69,30,30.09,30.00,18,5,18,0.06
2013-4-21,75.6,62.4,52.3,51.8,46.6,44.3,86,59,36,30.09,29.93,14,7,14,0.06
2013-4-22,76.8,60.1,43.3,48.3,43.9,40.1,91,60,29,29.98,29.88,12,4,12,0.00
2013-4-23,76.8,62.2,46.6,55.0,49.2,44.1,93,66,36,30.20,29.98,18,6,18,0.00
2013-4-24,78.6,63.7,48.0,54.3,46.5,37.3,93,59,23,30.31,30.20,17,4,17,0.00
2013-4-25,81.5,63.2,44.1,51.4,45.1,35.8,93,58,20,30.25,30.12,15,4,15,0.00
2013-4-26,85.5,66.6,46.2,54.4,45.9,35.5,92,54,19,30.13,29.74,22,6,22,0.00
2013-4-27,82.4,71.0,60.1,53.8,49.4,44.7,61,47,31,29.74,29.67,29,12,29,0.00
2013-4-28,80.2,68.7,59.0,60.5,54.1,48.7,90,62,38,29.97,29.71,20,9,20,0.01
2013-4-29,85.5,69.1,52.2,57.3,52.9,48.4,95,62,32,30.05,29.96,28,9,28,0.01
2013-4-30,87.6,70.2,54.7,60.7,54.7,47.4,90,62,31,30.09,29.95,14,4,14,0.00
2013-5-1,87.1,72.4,59.7,59.6,55.8,51.3,80,58,30,30.08,29.99,10,4,10,0.00
2013-5-2,85.5,69.6,57.0,63.6,58.7,53.7,97,71,43,30.05,29.82,22,5,22,0.44
2013-5-3,76.1,64.1,57.4,66.4,60.7,3.4,99,89,64,30.03,29.77,21,5,21,0.58
2013-5-4,72.5,61.8,52.9,56.3,54.0,51.6,97,77,56,30.04,29.85,13,6,13,0.58
2013-5-5,77.0,64.4,50.7,57.5,54.3,50.3,99,73,41,30.14,30.04,10,4,10,0.00
2013-5-6,78.4,66.1,59.5,62.5,57.6,50.6,91,76,49,30.13,30.01,18,6,18,0.02
2013-5-7,73.6,65.2,59.0,66.0,60.9,58.2,99,87,63,30.06,29.96,15,6,15,0.04
2013-5-8,78.8,65.9,55.6,64.2,57.9,53.4,99,79,43,30.04,29.94,14,3,14,0.06
2013-5-9,80.1,66.8,54.5,61.5,55.4,52.8,99,71,40,30.04,29.95,13,4,13,0.06
2013-5-10,82.0,67.3,51.6,58.3,52.3,30.8,97,64,33,29.99,29.77,23,6,23,0.00
2013-5-11,75.4,64.4,56.8,60.9,57.3,52.7,92,79,58,29.85,29.72,14,5,14,0.02
2013-5-12,68.7,60.2,53.2,56.7,53.5,48.7,98,80,60,29.78,29.69,17,7,17,0.01
2013-5-13,63.5,57.4,52.5,49.0,46.1,39.9,84,67,48,29.91,29.78,29,15,29,0.02
2013-5-14,66.6,57.2,49.8,50.7,46.3,42.6,87,68,52,29.93,29.87,14,6,14,0.00
2013-5-15,73.8,60.6,45.3,56.5,50.5,44.5,98,72,48,29.88,29.75,13,4,13,0.00
2013-5-16,77.7,64.7,47.3,57.2,53.5,46.2,97,70,45,29.80,29.65,18,8,18,0.00
2013-5-17,71.6,65.6,56.1,61.8,58.8,54.8,97,79,67,29.73,29.64,21,7,21,0.26
2013-5-18,77.0,64.8,55.2,58.2,54.0,48.5,99,72,38,29.92,29.66,18,7,18,0.01
2013-5-19,82.6,67.8,49.3,56.9,53.3,48.3,98,65,37,29.93,29.73,26,7,26,0.04
2013-5-20,73.6,63.7,54.5,58.7,52.4,45.8,96,69,40,29.93,29.77,20,7,20,0.06
2013-5-21,72.9,62.3,49.3,53.3,49.0,45.2,97,65,40,29.92,29.80,20,7,20,0.00
2013-5-22,71.1,60.3,50.7,54.8,50.4,46.5,91,71,49,29.80,29.63,17,6,17,0.00
2013-5-23,66.0,57.9,51.6,51.8,48.3,45.3,94,71,55,29.69,29.54,18,7,18,0.04
2013-5-24,66.2,57.8,51.3,50.3,47.3,44.8,82,69,53,29.70,29.57,15,4,15,0.04
2013-5-25,65.7,57.3,49.3,50.9,47.1,44.1,95,71,47,29.75,29.68,17,5,17,0.00
2013-5-26,63.9,55.6,50.7,52.7,46.7,38.8,94,74,46,29.76,29.68,18,6,18,0.04
2013-5-27,57.6,53.3,48.4,45.7,42.8,38.7,79,68,62,29.80,29.75,16,6,16,0.04
2013-5-28,72.3,59.5,50.5,54.1,48.8,44.6,84,69,48,29.79,29.66,20,8,20,0.00
2013-5-29,77.5,62.9,46.9,59.2,53.0,45.6,97,73,47,29.68,29.52,13,6,13,0.00
2013-5-30,64.6,59.6,53.2,61.7,56.4,50.0,99,90,79,29.56,29.44,15,6,15,0.80
2013-5-31,64.6,54.5,48.0,56.4,51.2,47.8,99,89,66,29.59,29.50,15,5,15,0.45
2013-6-1,70.0,56.7,46.4,58.1,50.3,46.1,99,82,51,29.69,29.59,13,4,13,0.45
2013-6-2,70.2,60.0,50.9,56.7,52.2,48.2,98,77,47,29.83,29.67,14,5,14,0.00
2013-6-3,64.8,58.2,52.2,54.9,51.7,48.4,90,79,66,29.89,29.81,22,9,22,0.00
2013-6-4,71.1,59.0,52.7,59.5,54.4,48.9,95,85,65,29.90,29.81,15,6,15,0.05
2013-6-5,71.4,61.6,54.9,64.7,58.0,54.0,98,88,70,30.01,29.90,9,3,9,0.43
2013-6-6,72.9,62.5,53.8,65.6,59.0,52.9,98,89,68,30.05,29.99,10,3,10,0.14
2013-6-7,80.6,66.8,56.7,63.8,58.9,55.2,99,79,44,30.03,29.94,16,5,16,0.14
2013-6-8,84.7,69.0,57.2,64.5,59.2,52.6,96,75,35,29.98,29.86,13,4,13,0.35
2013-6-9,84.9,71.0,56.1,65.9,59.7,55.8,99,72,42,29.88,29.74,14,5,14,0.35
2013-6-10,84.0,70.4,61.0,64.4,60.3,56.2,96,73,42,29.78,29.65,18,6,18,0.14
2013-6-11,75.0,63.6,55.6,64.1,59.0,53.0,99,86,58,29.86,29.73,24,4,24,0.04
2013-6-12,76.8,65.0,52.5,64.0,55.5,51.2,98,74,50,30.06,27.34,15,7,22,0.12
2013-6-13,83.3,70.4,55.2,58.7,54.2,50.1,88,60,34,30.08,29.98,15,6,15,0.12
2013-6-14,84.9,71.6,54.9,61.9,58.4,53.7,97,67,39,30.01,29.94,13,4,13,0.00
2013-6-15,87.4,73.7,59.2,65.6,61.6,57.3,96,69,38,29.99,29.91,12,4,12,0.00
2013-6-16,89.8,74.3,62.6,68.7,64.2,59.7,94,74,39,30.02,29.95,15,4,15,0.00
2013-6-17,93.7,78.8,61.5,69.4,65.4,60.4,98,68,39,30.03,29.95,9,3,9,0.00
2013-6-18,97.3,81.7,65.7,71.4,66.1,60.8,97,65,31,30.03,29.94,13,4,13,0.00
2013-6-19,97.7,82.8,65.7,71.1,67.2,61.0,94,64,32,30.00,29.93,11,4,11,0.00
2013-6-20,96.3,83.4,70.0,73.7,70.0,67.2,92,67,41,30.00,29.87,17,5,17,0.00
2013-6-21,95.5,83.6,71.6,72.8,69.2,64.1,91,65,38,29.91,29.86,13,4,13,0.00
2013-6-22,92.8,80.3,68.2,75.6,68.5,61.8,95,70,36,29.92,29.81,20,4,20,0.06
2013-6-23,87.4,75.9,68.4,71.4,67.1,62.4,97,76,45,29.88,29.78,15,5,15,0.24
2013-6-24,80.6,68.6,59.7,65.8,61.9,57.1,96,81,57,29.83,29.74,16,6,16,0.12
2013-6-25,62.2,59.6,56.8,58.4,55.5,52.1,92,86,82,29.98,29.77,23,8,23,0.12
2013-6-26,65.8,59.9,55.2,52.5,50.9,49.3,84,73,60,30.15,29.96,22,13,22,0.00
2013-6-27,70.9,60.3,54.7,57.5,53.0,47.6,94,78,55,30.16,30.07,15,6,15,0.14
2013-6-28,73.2,61.5,52.9,59.1,55.9,52.3,99,84,50,30.08,29.98,20,4,20,0.19
2013-6-29,77.4,65.5,55.8,60.0,55.4,48.7,99,74,37,30.00,29.90,15,5,15,0.19
2013-6-30,76.5,64.9,52.7,57.9,53.4,47.7,97,69,43,30.03,29.94,25,9,25,0.00
2013-7-1,76.6,64.5,50.0,51.2,48.5,45.8,89,59,36,30.08,30.02,18,6,18,0.00
2013-7-2,83.5,67.7,48.9,55.9,49.6,42.7,93,58,26,30.10,30.00,10,4,10,0.00
2013-7-3,87.8,70.6,52.2,58.1,53.2,49.5,92,60,29,30.03,29.91,14,4,14,0.00
2013-7-4,89.6,74.3,54.5,63.2,55.5,50.6,93,58,27,30.04,29.96,13,4,13,0.00
2013-7-5,86.5,74.9,64.4,66.1,60.8,57.1,92,64,41,30.14,30.03,21,7,21,0.20
2013-7-6,88.3,75.2,64.9,67.4,63.4,56.8,94,69,41,30.21,27.12,52,7,53,0.01
2013-7-7,89.1,78.0,68.2,64.6,62.1,59.4,79,60,39,30.22,30.15,18,7,18,0.01
2013-7-8,87.3,75.8,67.3,61.8,58.8,54.7,74,57,40,30.25,29.89,13,6,13,0.00
2013-7-9,87.6,75.2,64.2,59.8,57.3,53.2,77,56,36,30.21,30.00,15,6,15,0.00
2013-7-10,88.7,74.4,57.0,64.5,58.5,54.6,92,62,34,30.02,29.80,11,3,11,0.00
2013-7-11,77.7,69.2,58.6,63.4,57.6,50.2,91,68,47,29.93,29.77,20,6,20,0.00
2013-7-12,76.5,67.1,55.9,55.0,52.8,50.6,85,61,43,30.01,29.93,20,7,20,0.00
2013-7-13,78.3,68.6,59.2,61.4,53.9,49.3,80,61,43,30.03,29.74,18,7,18,0.00
2013-7-14,82.2,70.3,57.7,56.8,52.7,46.8,85,57,32,30.03,29.95,20,7,20,0.00
2013-7-15,81.0,68.5,57.9,60.2,53.7,47.5,87,62,32,30.07,29.95,22,7,22,0.00
2013-7-16,83.5,69.8,54.0,55.9,51.6,47.4,88,56,30,30.17,29.82,13,5,13,0.00
2013-7-17,86.7,72.0,54.7,58.7,54.9,51.5,90,59,32,30.17,30.07,9,4,9,0.00
2013-7-18,89.8,74.2,58.3,63.1,58.3,54.0,90,62,33,30.14,30.04,9,3,9,0.00
2013-7-19,88.9,76.1,66.7,64.8,61.6,58.0,83,63,38,30.07,29.91,9,4,9,0.00
2013-7-20,87.1,74.6,59.9,63.0,57.3,53.4,87,58,34,30.03,29.91,15,6,15,0.00
2013-7-21,84.7,72.8,59.7,56.7,51.9,47.1,75,50,32,30.09,30.02,11,4,11,0.00
2013-7-22,88.5,73.2,54.3,57.7,53.5,49.3,84,54,29,30.10,29.90,11,4,11,0.00
2013-7-23,91.2,75.4,57.4,61.2,53.3,48.3,84,51,24,29.91,29.83,20,5,20,0.02
2013-7-24,91.4,75.7,59.2,56.8,48.7,26.6,81,45,10,29.94,29.85,16,4,16,0.02
2013-7-25,83.8,70.8,56.8,62.5,56.4,46.7,85,61,46,29.98,29.90,8,3,8,0.00
2013-7-26,92.3,76.0,58.8,62.9,59.2,54.1,92,61,29,29.99,29.89,15,4,15,0.00
2013-7-27,96.8,80.2,62.8,65.5,61.8,57.9,88,58,30,29.94,29.85,10,4,10,0.00
2013-7-28,99.9,83.5,66.9,68.4,62.2,54.4,85,55,23,29.94,29.88,15,5,15,0.00
2013-7-29,102.6,85.3,66.4,66.9,63.0,51.6,85,52,29,29.93,29.76,22,6,22,0.00
2013-7-30,85.5,75.9,68.7,67.6,59.2,51.8,85,58,32,30.00,29.81,28,12,28,0.04
2013-7-31,87.3,76.1,62.8,61.6,56.8,53.7,80,54,33,30.02,29.95,17,7,17,0.00
2013-8-1,90.9,77.4,64.0,61.6,58.1,53.3,82,55,29,30.06,29.97,13,4,13,0.00
2013-8-2,95.4,78.1,60.1,64.3,59.6,54.8,88,58,29,30.06,29.94,12,3,12,0.00
2013-8-3,99.5,80.8,61.3,66.0,59.5,50.6,85,54,20,29.99,29.91,10,3,10,0.00
2013-8-4,96.6,81.8,67.1,66.4,60.7,56.0,82,52,29,30.11,29.96,12,4,17,0.00
2013-8-5,95.7,82.8,69.3,67.4,62.1,57.4,83,53,30,30.11,29.96,26,5,26,0.00
2013-8-6,100.4,82.2,63.7,66.4,61.3,52.9,85,54,21,30.03,29.89,10,4,10,0.00
2013-8-7,100.6,83.6,66.4,65.4,60.5,51.5,82,51,21,29.95,29.87,15,4,15,0.00
2013-8-8,104.0,84.8,66.6,67.7,61.0,47.8,82,51,19,29.97,29.87,15,4,15,0.00
2013-8-9,102.0,84.6,67.5,67.7,60.9,53.5,81,50,22,29.93,29.75,20,4,20,0.00
2013-8-10,78.5,72.7,68.4,67.8,62.1,57.0,84,70,58,29.94,29.82,22,9,22,0.07
2013-8-11,87.4,73.9,61.9,58.5,51.7,40.8,81,51,20,29.98,29.91,15,5,15,0.07
2013-8-12,88.9,73.6,57.4,61.7,54.0,49.4,82,55,28,30.03,29.91,15,4,15,0.00
2013-8-13,88.5,72.8,59.4,62.3,56.9,51.8,90,60,32,30.01,29.90,22,7,22,0.13
2013-8-14,75.7,68.1,63.1,63.9,57.3,46.6,95,71,40,30.12,29.98,15,4,15,0.02
2013-8-15,81.3,66.3,51.1,57.6,51.0,43.5,98,64,27,30.19,30.11,12,4,12,0.02
2013-8-16,99.0,67.3,49.5,58.1,48.2,39.7,91,57,23,30.18,29.88,8,3,8,0.22
2013-8-17,88.3,69.2,50.0,55.1,48.2,40.4,85,54,19,30.08,29.97,9,3,9,0.22
2013-8-18,93.0,72.6,52.2,56.3,49.6,40.9,82,51,18,30.05,29.94,10,3,10,0.00
2013-8-19,95.9,75.8,56.1,59.3,51.3,36.7,82,49,13,30.00,29.86,15,4,15,0.00
2013-8-20,81.5,72.7,65.8,64.1,61.1,52.8,83,68,51,30.09,29.90,15,5,15,0.00
2013-8-21,79.5,70.8,63.5,62.8,60.4,56.5,86,71,54,30.14,30.07,15,4,15,0.00
2013-8-22,81.5,69.1,57.0,59.8,56.8,52.7,93,67,39,30.10,29.99,10,3,10,0.00
2013-8-23,84.0,69.6,53.6,60.6,53.3,48.9,85,59,35,30.06,29.93,9,4,9,0.00
2013-8-24,80.1,69.0,56.3,55.8,53.6,51.4,85,60,39,29.99,29.86,13,4,13,0.00
2013-8-25,83.1,70.7,63.1,62.5,54.9,50.1,89,60,34,29.89,29.78,16,6,16,0.04
2013-8-26,70.7,65.8,61.9,65.8,62.3,60.3,98,89,73,29.91,29.82,11,4,11,0.24
2013-8-27,76.5,66.7,60.6,61.7,60.1,57.9,98,81,54,29.93,29.85,9,4,9,0.01
2013-8-28,73.2,64.5,59.5,64.4,60.3,57.5,99,87,65,29.90,29.82,13,6,13,0.46
2013-8-29,78.6,66.3,58.5,63.6,58.7,52.8,99,79,43,30.08,29.89,15,5,15,0.02
2013-8-30,76.1,65.0,56.8,60.0,57.0,50.9,97,78,42,30.07,30.03,11,3,11,0.02
2013-8-31,80.4,65.0,51.1,59.5,53.4,47.4,99,71,32,30.08,30.00,12,4,12,0.00
2013-9-1,75.2,66.2,59.0,60.0,55.5,48.0,93,70,51,30.13,30.01,20,6,20,0.00
2013-9-2,71.4,61.4,48.4,51.4,46.7,43.4,95,62,39,30.19,30.08,21,8,21,0.00
2013-9-3,74.7,66.9,61.5,59.6,53.1,47.1,78,62,46,30.20,30.00,28,15,28,0.00
2013-9-4,77.5,61.6,46.0,53.5,47.6,43.3,97,65,30,30.25,30.14,13,4,13,0.00
2013-9-5,78.6,62.2,47.3,53.3,49.2,45.4,95,67,32,30.16,30.01,9,3,9,0.00
2013-9-6,78.6,63.0,47.7,53.3,49.7,45.7,94,66,35,30.05,29.96,10,3,11,0.00
2013-9-7,80.4,62.5,46.2,53.5,48.4,44.3,96,66,30,30.14,30.04,8,3,8,0.00
2013-9-8,82.2,63.6,46.9,53.0,48.6,42.4,96,64,25,30.21,30.09,13,4,13,0.00
2013-9-9,63.7,58.3,52.0,58.8,54.7,49.1,98,88,67,30.11,30.01,7,2,7,0.15
2013-9-10,72.1,59.7,52.9,62.3,56.4,52.3,99,90,60,30.09,29.94,10,3,10,0.15
2013-9-11,66.7,58.9,50.7,59.4,55.1,47.6,99,89,56,29.95,29.88,16,4,16,0.08
2013-9-12,70.3,59.8,49.1,56.1,50.2,44.9,99,74,43,29.94,29.87,12,4,12,0.08
2013-9-13,66.2,59.5,54.1,51.6,49.8,48.3,83,71,54,29.97,29.93,16,7,16,0.00
2013-9-14,72.7,56.7,52.7,55.6,53.4,50.1,98,89,80,30.06,29.84,23,8,23,0.12
2013-9-15,73.6,60.6,47.7,60.5,55.2,47.4,99,84,60,29.92,29.74,15,3,15,0.01
2013-9-16,74.3,63.4,52.9,62.7,57.8,52.3,99,84,61,29.74,29.52,8,3,8,0.00
2013-9-17,61.0,56.1,50.2,60.4,51.3,41.4,99,84,69,29.64,29.40,44,12,44,0.02
2013-9-18,63.9,55.2,46.4,51.5,46.1,42.2,88,73,46,29.65,29.52,17,7,17,0.02
2013-9-19,62.6,57.9,53.1,54.5,47.3,40.0,88,69,45,29.89,29.52,28,11,28,0.00
2013-9-20,64.8,56.3,43.7,52.2,46.6,41.5,96,72,48,30.00,29.89,17,5,17,0.00
2013-9-21,67.3,59.2,50.7,53.0,51.1,46.5,92,76,55,30.22,29.99,20,8,20,0.00
2013-9-22,66.9,54.9,41.2,51.9,46.3,40.8,99,76,47,30.29,30.15,13,4,13,0.00
2013-9-23,66.2,60.5,52.5,56.2,52.0,46.9,84,74,66,30.15,29.91,30,12,30,0.00
2013-9-24,68.4,63.1,58.5,54.8,52.2,50.3,75,68,60,29.93,29.86,24,10,24,0.00
2013-9-25,67.3,59.1,50.2,53.7,50.7,47.4,94,75,58,29.98,29.86,13,4,13,0.00
2013-9-26,72.0,58.0,49.6,60.7,53.0,47.5,93,84,56,29.92,29.77,25,4,25,0.07
2013-9-27,60.6,51.3,41.5,52.4,46.0,41.3,99,84,56,30.06,29.90,12,4,12,0.15
2013-9-28,63.1,48.3,37.8,51.4,41.9,37.2,99,81,46,30.02,29.92,11,2,11,0.00
2013-9-29,62.2,50.3,38.1,46.5,40.8,36.7,99,73,43,29.99,29.90,15,4,15,0.00
2013-9-30,62.6,54.3,47.5,42.0,39.9,38.1,73,59,41,29.90,29.77,22,8,22,0.00
2013-10-1,63.5,54.5,49.1,44.6,40.7,38.6,73,60,43,29.94,29.77,14,6,14,0.00
2013-10-2,55.8,50.2,37.7,40.1,32.8,22.9,71,53,29,30.32,29.93,16,7,16,0.00
2013-10-3,53.4,42.2,31.5,30.1,24.7,16.1,80,54,24,30.49,30.32,18,5,18,0.00
2013-10-4,59.5,38.2,24.4,32.4,24.6,19.4,87,62,29,30.50,29.48,9,3,9,0.24
2013-10-5,59.2,40.4,24.3,33.3,25.8,19.6,87,61,25,30.40,30.19,14,4,14,0.00
2013-10-6,61.7,45.9,32.7,38.0,32.9,27.4,84,63,35,30.28,30.21,8,2,8,0.00
2013-10-7,66.9,53.0,44.2,43.6,40.9,36.4,84,66,37,30.34,30.16,8,2,8,0.00
2013-10-8,69.3,51.1,36.3,46.7,38.6,33.9,98,68,30,30.34,30.23,11,3,11,0.00
2013-10-9,63.7,52.8,41.7,49.9,43.6,37.2,86,72,53,30.23,29.61,11,4,11,0.08
2013-10-10,57.6,54.7,52.3,54.2,52.3,35.9,98,92,51,29.98,29.55,11,4,11,0.02
2013-10-11,71.6,61.6,54.9,59.1,55.5,53.4,97,82,58,30.06,29.91,18,7,18,0.02
2013-10-12,74.3,62.0,53.1,60.5,57.1,52.5,99,86,58,30.13,30.03,13,4,13,0.38
2013-10-13,69.4,58.8,47.3,64.1,55.1,46.5,99,89,58,30.17,30.06,13,4,13,0.58
2013-10-14,65.1,52.5,41.9,54.7,48.6,41.6,99,88,61,30.18,30.06,7,2,7,0.00
2013-10-15,66.4,55.3,44.4,58.0,51.5,43.8,99,88,63,30.06,29.77,13,4,13,0.00
2013-10-16,52.9,49.0,43.3,51.3,47.2,42.8,99,94,81,29.77,29.58,31,11,31,0.52
2013-10-17,61.0,54.3,49.3,50.0,46.2,42.0,89,75,51,29.93,29.72,21,9,21,0.52
2013-10-18,59.7,53.4,46.2,50.3,46.0,42.4,96,77,59,30.10,29.89,29,9,29,0.06
2013-10-19,57.2,46.8,37.2,46.6,41.5,35.2,99,83,59,30.27,29.92,15,4,15,0.00
2013-10-20,65.1,52.6,39.2,52.0,46.6,38.2,99,81,60,30.23,30.07,9,4,9,0.00
2013-10-21,70.0,55.5,47.5,57.5,51.4,46.6,99,87,60,30.13,30.06,9,2,9,0.00
2013-10-22,65.1,55.5,46.6,59.0,53.1,46.0,99,92,80,30.14,30.07,10,3,10,0.00
2013-10-23,74.7,65.0,57.7,60.0,56.8,54.4,96,77,53,30.08,29.94,21,8,21,0.00
2013-10-24,71.2,60.4,49.8,58.8,54.9,48.9,98,83,62,30.14,30.02,8,3,8,0.00
2013-10-25,73.4,59.4,48.4,60.7,54.6,48.1,99,85,58,30.17,30.08,8,2,8,0.00
2013-10-26,71.4,56.7,46.2,58.4,52.2,45.4,99,86,60,30.12,30.06,9,2,9,0.00
2013-10-27,69.4,53.3,46.2,60.4,50.8,45.4,99,92,66,30.10,29.88,13,2,13,0.00
2013-10-28,69.8,62.7,56.5,59.8,54.9,50.5,91,76,61,30.01,29.87,18,5,18,0.00
2013-10-29,69.8,58.6,48.7,57.8,53.1,47.7,98,83,65,30.03,29.86,9,3,9,0.02
2013-10-30,61.0,54.0,46.4,52.5,46.6,40.4,96,77,55,30.28,30.02,18,5,18,0.06
2013-10-31,59.5,46.9,37.9,43.7,39.2,35.9,94,76,44,30.36,24.72,8,2,8,0.00
2013-11-1,57.6,49.9,40.1,47.3,43.6,37.7,91,79,64,30.27,30.08,6,3,6,0.00
2013-11-2,60.8,54.6,46.8,54.3,50.4,44.8,95,86,75,30.08,29.83,16,4,16,0.00
2013-11-3,59.7,53.5,50.2,57.8,50.1,41.1,98,89,70,29.87,29.58,28,7,28,0.20
2013-11-4,52.7,49.5,42.8,49.4,44.2,39.8,94,82,69,29.90,29.48,15,5,15,0.06
2013-11-5,53.6,50.5,46.2,52.9,48.2,39.4,98,92,74,29.49,29.41,23,6,23,0.43
2013-11-6,55.4,47.8,37.6,43.2,39.1,34.9,91,72,55,29.83,29.44,24,8,24,0.01
2013-11-7,59.0,51.7,46.4,49.1,45.4,39.9,93,79,67,30.01,29.82,15,5,15,0.01
2013-11-8,56.1,46.9,39.0,51.0,44.8,38.2,97,92,82,30.01,29.93,6,3,6,0.00
2013-11-9,58.8,51.3,44.8,53.2,48.1,44.0,97,89,76,29.93,29.81,18,5,18,0.07
2013-11-10,55.6,49.8,45.5,48.2,44.9,42.1,95,84,64,29.82,29.70,15,4,15,0.04
2013-11-11,53.4,50.9,48.2,46.6,43.1,39.2,93,75,64,30.25,29.76,17,10,17,0.01
2013-11-12,56.3,51.1,46.4,44.5,40.5,36.8,83,67,56,30.31,30.24,15,6,15,0.01
2013-11-13,51.4,48.1,45.0,47.2,43.7,40.8,88,85,82,30.26,30.22,12,3,12,0.00
2013-11-14,46.9,45.0,43.7,43.4,40.9,39.2,94,86,78,30.26,30.10,8,3,8,0.02
2013-11-15,49.6,46.5,44.6,41.0,39.7,38.0,84,77,71,30.36,24.91,8,4,8,0.00
2013-11-16,56.7,45.0,36.7,45.5,40.3,33.5,94,84,62,30.38,30.29,8,2,8,0.00
2013-11-17,45.1,40.2,36.0,44.1,38.6,33.0,97,94,88,30.29,30.20,5,2,5,0.00
2013-11-18,58.3,42.3,41.5,42.6,41.1,39.7,97,96,93,30.21,29.62,11,5,11,0.00
2013-11-19,46.2,43.5,41.2,42.5,40.1,37.9,97,88,80,30.04,29.72,13,7,13,0.00
2013-11-20,51.1,47.2,43.3,46.7,43.5,39.8,95,87,78,29.72,29.53,10,5,10,0.24
2013-11-21,47.1,43.0,37.0,45.6,41.6,34.8,97,95,92,29.66,29.56,11,4,11,0.19
2013-11-22,50.5,47.9,46.0,47.7,46.0,44.2,97,93,89,29.74,29.59,8,4,8,0.19
2013-11-23,53.8,48.5,43.7,47.2,44.3,41.8,94,86,77,29.76,29.69,14,8,14,0.00
2013-11-24,49.3,46.4,44.4,45.3,43.8,41.5,95,91,79,29.70,29.64,12,3,12,0.37
2013-11-25,44.2,38.6,36.5,41.5,29.1,23.4,90,69,55,30.03,29.64,30,14,30,0.40
2013-11-26,39.7,35.8,32.2,28.3,24.9,22.1,71,65,58,30.20,30.02,15,6,15,0.00
2013-11-27,41.2,32.2,24.1,23.1,19.6,16.3,78,61,38,30.41,30.20,15,5,15,0.00
2013-11-28,54.7,30.3,19.9,28.6,20.9,15.0,85,70,41,30.40,29.75,17,6,17,0.00
2013-11-29,43.2,39.1,35.2,32.6,30.7,27.8,77,72,63,30.19,30.01,21,9,21,0.00
2013-11-30,41.0,35.7,27.9,31.1,28.2,22.6,85,74,66,30.25,29.96,12,4,12,0.00
2013-12-1,45.0,33.8,24.1,35.7,26.1,19.4,89,74,59,30.30,30.21,18,5,18,0.00
2013-12-2,46.9,38.2,30.0,34.0,29.2,22.9,83,70,56,30.59,30.22,21,5,21,0.00
2013-12-3,39.4,29.8,23.0,26.9,21.3,17.2,84,71,54,30.60,30.45,6,2,6,0.00
2013-12-4,35.4,25.5,18.7,29.4,20.8,12.1,89,82,72,30.44,30.12,24,4,24,0.00
2013-12-5,42.4,37.8,33.3,31.1,28.3,23.5,80,68,56,30.25,29.83,36,12,36,0.00
2013-12-6,47.1,39.4,35.6,36.1,26.6,22.4,85,61,47,29.84,29.67,39,20,39,0.01
2013-12-7,38.8,36.1,33.6,28.1,22.7,19.1,80,58,48,30.15,29.83,39,22,39,0.01
2013-12-8,42.4,39.5,36.3,34.7,31.4,24.9,84,73,62,30.30,30.15,21,6,21,0.00
2013-12-9,46.6,44.8,40.3,39.1,35.7,30.5,77,70,56,30.26,30.09,33,14,33,0.01
2013-12-10,46.6,36.2,24.4,38.7,26.8,17.0,80,69,57,30.71,30.23,21,5,21,0.01
2013-12-11,37.4,30.6,23.4,23.6,20.7,16.3,76,67,49,30.71,30.55,9,3,9,0.00
2013-12-12,35.6,33.9,31.3,28.9,27.0,23.6,81,76,70,30.56,30.38,8,2,8,0.00
2013-12-13,34.0,32.5,30.7,28.8,27.6,26.2,83,82,80,30.38,30.29,8,4,8,0.00
2013-12-14,32.5,31.3,29.8,27.0,26.3,25.7,85,82,78,30.43,30.30,8,3,8,0.00
2013-12-15,35.8,33.2,31.5,31.4,29.4,26.6,91,86,82,30.55,30.42,8,3,8,0.00
2013-12-16,35.6,34.0,32.7,32.8,31.2,30.3,92,89,86,30.64,30.53,11,3,11,0.00
2013-12-17,33.6,33.0,31.5,31.0,29.6,28.6,90,87,85,30.64,30.49,12,6,12,0.00
2013-12-18,32.7,30.8,29.3,29.0,26.9,25.4,87,85,84,30.49,30.29,9,5,9,0.00
2013-12-19,30.9,29.4,27.9,28.4,25.5,22.4,91,85,79,30.29,30.14,13,7,13,0.00
2013-12-20,31.1,30.2,28.9,28.8,27.5,26.1,91,90,87,30.45,30.20,8,4,8,0.00
2013-12-21,41.5,32.6,27.5,34.3,28.6,23.6,91,85,73,30.60,30.43,8,4,8,0.00
2013-12-22,33.4,32.3,31.6,30.0,28.8,28.0,88,87,85,30.56,30.30,8,4,8,0.00
2013-12-23,39.2,36.2,33.4,35.8,32.7,30.0,91,87,83,30.31,30.25,7,3,7,0.00
2013-12-24,40.5,35.1,27.7,39.1,32.7,23.8,95,91,85,30.26,29.97,11,4,11,0.00
2013-12-25,43.5,33.9,26.2,37.4,29.5,22.4,91,84,77,29.98,29.73,6,3,6,0.01
2013-12-26,45.1,39.2,32.0,41.0,35.1,28.0,91,85,80,29.74,28.22,8,4,8,0.04
2013-12-27,51.6,43.4,33.6,45.1,39.3,28.9,92,86,71,30.49,29.65,8,4,8,0.06
2013-12-28,43.0,35.0,30.4,40.8,32.5,27.8,95,91,88,30.02,29.93,8,2,8,0.01
2013-12-29,46.0,39.4,30.7,42.9,36.8,28.4,96,91,71,30.19,29.93,15,4,15,0.00
2013-12-30,46.4,42.8,36.1,40.2,37.4,31.3,90,81,71,30.34,30.18,13,4,13,0.01
2013-12-31,39.0,37.5,35.4,37.3,34.3,31.9,94,88,82,30.30,30.19,11,5,11,0.01
2014-1-1,39.4,37.4,35.8,34.3,33.1,30.7,88,84,80,30.19,30.10,11,4,11,0.00
2014-1-2,41.4,37.7,31.6,35.7,33.3,27.9,87,84,79,30.10,29.93,10,4,10,0.00